"Sample Date","Sample Time","Sensor Name","Sample Value","Units","Flow Rate","Sample Interval","Sample Volume","Laser Status","Number Channels","Micron Size 0","Counts/Channel 0","Micron Size 1","Counts/Channel 1","Micron Size 2","Counts/Channel 2","Micron Size 3","Counts/Channel 3","Micron Size 4","Counts/Channel 4","Micron Size 5","Counts/Channel 5","Micron Size 6","Counts/Channel 6","Micron Size 7","Counts/Channel 7","Micron Size 8","Counts/Channel 8","Micron Size 9","Counts/Channel 9","Micron Size 10","Counts/Channel 10","Micron Size 11","Counts/Channel 11","Micron Size 12","Counts/Channel 12","Micron Size 13","Counts/Channel 13","Micron Size 14","Counts/Channel 14","Micron Size 15","Counts/Channel 15","Micron Size 16","Counts/Channel 16","Micron Size 17","Counts/Channel 17","Micron Size 18","Counts/Channel 18","Micron Size 19","Counts/Channel 19","Micron Size 20","Counts/Channel 20","Micron Size 21","Counts/Channel 21","Micron Size 22","Counts/Channel 22","Micron Size 23","Counts/Channel 23","Micron Size 24","Counts/Channel 24","Micron Size 25","Counts/Channel 25","Micron Size 26","Counts/Channel 26","Micron Size 27","Counts/Channel 27","Micron Size 28","Counts/Channel 28","Micron Size 29","Counts/Channel 29","Micron Size 30","Counts/Channel 30","Micron Size 31","Counts/Channel 31"
"07/11/06","05:00:04","AMMA06",80774.000,"cc",28319.275,6.00,2831.928,1,6,0.100,40845.000,0.200,30840.000,0.300,8008.000,0.500,829.000,1.000,252.000,5.000,0
"07/11/06","05:00:10","AMMA06",81225.000,"cc",28353.184,6.00,2835.319,1,6,0.100,40887.000,0.200,30843.000,0.300,8125.000,0.500,987.000,1.000,383.000,5.000,0
"07/11/06","05:00:16","AMMA06",80426.000,"cc",28321.361,6.00,2832.136,1,6,0.100,41000.000,0.200,30500.000,0.300,7772.000,0.500,844.000,1.000,310.000,5.000,0
"07/11/06","05:00:22","AMMA06",81530.000,"cc",28320.010,6.00,2832.001,1,6,0.100,41271.000,0.200,30838.000,0.300,8128.000,0.500,921.000,1.000,372.000,5.000,0
"07/11/06","05:00:28","AMMA06",81094.000,"cc",28343.756,6.00,2834.376,1,6,0.100,41067.000,0.200,30696.000,0.300,8062.000,0.500,915.000,1.000,353.000,5.000,1.000
"07/11/06","05:00:34","AMMA06",80358.000,"cc",28299.629,6.00,2829.963,1,6,0.100,41145.000,0.200,30286.000,0.300,7782.000,0.500,863.000,1.000,282.000,5.000,0
"07/11/06","05:00:40","AMMA06",80424.000,"cc",28335.193,6.00,2833.520,1,6,0.100,41197.000,0.200,30105.000,0.300,7783.000,0.500,955.000,1.000,384.000,5.000,0
"07/11/06","05:00:46","AMMA06",80121.000,"cc",28283.738,6.00,2828.374,1,6,0.100,41320.000,0.200,30149.000,0.300,7597.000,0.500,781.000,1.000,274.000,5.000,0
"07/11/06","05:00:52","AMMA06",79815.000,"cc",28329.912,6.00,2832.992,1,6,0.100,41125.000,0.200,29987.000,0.300,7651.000,0.500,754.000,1.000,298.000,5.000,0
"07/11/06","05:00:58","AMMA06",79913.000,"cc",28365.418,6.00,2836.542,1,6,0.100,40868.000,0.200,30282.000,0.300,7614.000,0.500,840.000,1.000,309.000,5.000,0
"07/11/06","05:01:04","AMMA06",80070.000,"cc",28338.066,6.00,2833.807,1,6,0.100,41143.000,0.200,30157.000,0.300,7717.000,0.500,814.000,1.000,239.000,5.000,0
"07/11/06","05:01:10","AMMA06",81153.000,"cc",28346.873,6.00,2834.688,1,6,0.100,41573.000,0.200,30617.000,0.300,7723.000,0.500,880.000,1.000,360.000,5.000,0
"07/11/06","05:01:16","AMMA06",82256.000,"cc",28312.301,6.00,2831.230,1,6,0.100,42162.000,0.200,30521.000,0.300,7989.000,0.500,1078.000,1.000,506.000,5.000,0
"07/11/06","05:01:22","AMMA06",81196.000,"cc",28277.373,6.00,2827.738,1,6,0.100,41666.000,0.200,30398.000,0.300,7818.000,0.500,938.000,1.000,376.000,5.000,0
"07/11/06","05:01:28","AMMA06",80735.000,"cc",28301.738,6.00,2830.174,1,6,0.100,41483.000,0.200,30440.000,0.300,7623.000,0.500,860.000,1.000,329.000,5.000,0
"07/11/06","05:01:34","AMMA06",80422.000,"cc",28358.320,6.00,2835.832,1,6,0.100,41409.000,0.200,30153.000,0.300,7691.000,0.500,859.000,1.000,310.000,5.000,0
"07/11/06","05:01:40","AMMA06",80821.000,"cc",28284.674,6.00,2828.468,1,6,0.100,41582.000,0.200,30098.000,0.300,7764.000,0.500,956.000,1.000,421.000,5.000,0
"07/11/06","05:01:46","AMMA06",80582.000,"cc",28314.555,6.00,2831.456,1,6,0.100,41450.000,0.200,30449.000,0.300,7559.000,0.500,813.000,1.000,310.000,5.000,1.000
"07/11/06","05:01:52","AMMA06",80748.000,"cc",28342.898,6.00,2834.290,1,6,0.100,41296.000,0.200,30418.000,0.300,7793.000,0.500,905.000,1.000,336.000,5.000,0
"07/11/06","05:01:58","AMMA06",82344.000,"cc",28337.488,6.00,2833.749,1,6,0.100,41771.000,0.200,30806.000,0.300,8202.000,0.500,1064.000,1.000,501.000,5.000,0
"07/11/06","05:02:04","AMMA06",81647.000,"cc",28311.611,6.00,2831.161,1,6,0.100,41055.000,0.200,30978.000,0.300,8143.000,0.500,1059.000,1.000,412.000,5.000,0
"07/11/06","05:02:10","AMMA06",80963.000,"cc",28322.213,6.00,2832.221,1,6,0.100,40455.000,0.200,30829.000,0.300,8391.000,0.500,964.000,1.000,324.000,5.000,0
"07/11/06","05:02:16","AMMA06",81152.000,"cc",28292.293,6.00,2829.230,1,6,0.100,40736.000,0.200,30837.000,0.300,8374.000,0.500,919.000,1.000,286.000,5.000,0
"07/11/06","05:02:22","AMMA06",81348.000,"cc",28294.273,6.00,2829.428,1,6,0.100,41149.000,0.200,30968.000,0.300,8071.000,0.500,882.000,1.000,278.000,5.000,0
"07/11/06","05:02:28","AMMA06",81141.000,"cc",28281.133,6.00,2828.114,1,6,0.100,40635.000,0.200,31143.000,0.300,8208.000,0.500,897.000,1.000,258.000,5.000,0
"07/11/06","05:02:34","AMMA06",81977.000,"cc",28348.803,6.00,2834.880,1,6,0.100,41275.000,0.200,31097.000,0.300,8418.000,0.500,904.000,1.000,283.000,5.000,0
"07/11/06","05:02:40","AMMA06",81654.000,"cc",28335.789,6.00,2833.579,1,6,0.100,40934.000,0.200,31210.000,0.300,8290.000,0.500,897.000,1.000,322.000,5.000,1.000
"07/11/06","05:02:46","AMMA06",81288.000,"cc",28310.684,6.00,2831.069,1,6,0.100,40453.000,0.200,31173.000,0.300,8406.000,0.500,969.000,1.000,287.000,5.000,0
"07/11/06","05:02:52","AMMA06",82103.000,"cc",28242.973,6.00,2824.297,1,6,0.100,41018.000,0.200,31426.000,0.300,8440.000,0.500,917.000,1.000,302.000,5.000,0
"07/11/06","05:02:58","AMMA06",82212.000,"cc",28355.688,6.00,2835.569,1,6,0.100,41167.000,0.200,31304.000,0.300,8512.000,0.500,964.000,1.000,265.000,5.000,0
"07/11/06","05:03:04","AMMA06",81397.000,"cc",28344.578,6.00,2834.458,1,6,0.100,40433.000,0.200,31184.000,0.300,8501.000,0.500,975.000,1.000,304.000,5.000,0
"07/11/06","05:03:10","AMMA06",81994.000,"cc",28357.191,6.00,2835.719,1,6,0.100,40779.000,0.200,31287.000,0.300,8542.000,0.500,1038.000,1.000,348.000,5.000,0
"07/11/06","05:03:16","AMMA06",81683.000,"cc",28297.186,6.00,2829.719,1,6,0.100,40751.000,0.200,31175.000,0.300,8492.000,0.500,952.000,1.000,313.000,5.000,0
"07/11/06","05:03:22","AMMA06",82101.000,"cc",28315.674,6.00,2831.568,1,6,0.100,40891.000,0.200,31307.000,0.300,8616.000,0.500,979.000,1.000,308.000,5.000,0
"07/11/06","05:03:28","AMMA06",81599.000,"cc",28338.969,6.00,2833.897,1,6,0.100,40669.000,0.200,31241.000,0.300,8416.000,0.500,994.000,1.000,279.000,5.000,0
"07/11/06","05:03:34","AMMA06",82374.000,"cc",28290.115,6.00,2829.012,1,6,0.100,41051.000,0.200,31452.000,0.300,8556.000,0.500,1015.000,1.000,300.000,5.000,0
"07/11/06","05:03:40","AMMA06",82512.000,"cc",28257.455,6.00,2825.746,1,6,0.100,40946.000,0.200,31628.000,0.300,8543.000,0.500,1038.000,1.000,357.000,5.000,0
"07/11/06","05:03:46","AMMA06",81805.000,"cc",28310.699,6.00,2831.070,1,6,0.100,41052.000,0.200,30924.000,0.300,8528.000,0.500,1016.000,1.000,285.000,5.000,0
"07/11/06","05:03:52","AMMA06",82107.000,"cc",28335.338,6.00,2833.534,1,6,0.100,40894.000,0.200,31355.000,0.300,8575.000,0.500,990.000,1.000,293.000,5.000,0
"07/11/06","05:03:58","AMMA06",83212.000,"cc",28358.111,6.00,2835.811,1,6,0.100,41377.000,0.200,31657.000,0.300,8798.000,0.500,1055.000,1.000,325.000,5.000,0
"07/11/06","05:04:04","AMMA06",83147.000,"cc",28324.750,6.00,2832.475,1,6,0.100,40537.000,0.200,32200.000,0.300,8974.000,0.500,1078.000,1.000,358.000,5.000,0
"07/11/06","05:04:10","AMMA06",84997.000,"cc",28262.623,6.00,2826.263,1,6,0.100,41387.000,0.200,32181.000,0.300,9478.000,0.500,1385.000,1.000,566.000,5.000,0
"07/11/06","05:04:16","AMMA06",83453.000,"cc",28320.869,6.00,2832.087,1,6,0.100,40690.000,0.200,32135.000,0.300,9120.000,0.500,1191.000,1.000,317.000,5.000,0
"07/11/06","05:04:22","AMMA06",84561.000,"cc",28330.565,6.00,2833.057,1,6,0.100,40963.000,0.200,32214.000,0.300,9460.000,0.500,1352.000,1.000,572.000,5.000,0
"07/11/06","05:04:28","AMMA06",84644.000,"cc",28356.449,6.00,2835.645,1,6,0.100,41822.000,0.200,31848.000,0.300,9075.000,0.500,1334.000,1.000,565.000,5.000,0
"07/11/06","05:04:34","AMMA06",84400.000,"cc",28344.488,6.00,2834.449,1,6,0.100,41008.000,0.200,32085.000,0.300,9283.000,0.500,1445.000,1.000,579.000,5.000,0
"07/11/06","05:04:40","AMMA06",84654.000,"cc",28322.270,6.00,2832.227,1,6,0.100,41001.000,0.200,32221.000,0.300,9370.000,0.500,1495.000,1.000,567.000,5.000,0
"07/11/06","05:04:46","AMMA06",87767.000,"cc",28283.037,6.00,2828.304,1,6,0.100,41901.000,0.200,32642.000,0.300,10178.000,0.500,2016.000,1.000,1030.000,5.000,0
"07/11/06","05:04:52","AMMA06",84434.000,"cc",28334.027,6.00,2833.403,1,6,0.100,41364.000,0.200,31936.000,0.300,9279.000,0.500,1335.000,1.000,520.000,5.000,0
"07/11/06","05:04:58","AMMA06",84402.000,"cc",28314.674,6.00,2831.468,1,6,0.100,41266.000,0.200,32000.000,0.300,9245.000,0.500,1353.000,1.000,538.000,5.000,0
"07/11/06","05:05:04","AMMA06",82563.000,"cc",28349.971,6.00,2834.997,1,6,0.100,40871.000,0.200,31432.000,0.300,8835.000,0.500,1084.000,1.000,341.000,5.000,0
"07/11/06","05:05:10","AMMA06",82913.000,"cc",28275.043,6.00,2827.504,1,6,0.100,41062.000,0.200,31842.000,0.300,8698.000,0.500,1020.000,1.000,291.000,5.000,0
"07/11/06","05:05:16","AMMA06",81872.000,"cc",28351.932,6.00,2835.193,1,6,0.100,40944.000,0.200,31054.000,0.300,8486.000,0.500,1079.000,1.000,309.000,5.000,0
"07/11/06","05:05:22","AMMA06",82074.000,"cc",28368.494,6.00,2836.850,1,6,0.100,40903.000,0.200,31226.000,0.300,8626.000,0.500,1002.000,1.000,316.000,5.000,1.000
"07/11/06","05:05:28","AMMA06",82568.000,"cc",28258.139,6.00,2825.814,1,6,0.100,41012.000,0.200,31207.000,0.300,8740.000,0.500,1149.000,1.000,458.000,5.000,2.000
"07/11/06","05:05:34","AMMA06",81671.000,"cc",28308.096,6.00,2830.810,1,6,0.100,40680.000,0.200,31013.000,0.300,8616.000,0.500,1040.000,1.000,322.000,5.000,0
"07/11/06","05:05:40","AMMA06",82431.000,"cc",28288.516,6.00,2828.852,1,6,0.100,41142.000,0.200,31249.000,0.300,8564.000,0.500,1108.000,1.000,368.000,5.000,0
"07/11/06","05:05:46","AMMA06",82068.000,"cc",28358.385,6.00,2835.839,1,6,0.100,41180.000,0.200,31140.000,0.300,8515.000,0.500,946.000,1.000,287.000,5.000,0
"07/11/06","05:05:52","AMMA06",82328.000,"cc",28321.902,6.00,2832.190,1,6,0.100,41618.000,0.200,30872.000,0.300,8537.000,0.500,1012.000,1.000,289.000,5.000,0
"07/11/06","05:05:58","AMMA06",82404.000,"cc",28274.234,6.00,2827.424,1,6,0.100,41957.000,0.200,30848.000,0.300,8373.000,0.500,965.000,1.000,261.000,5.000,0
"07/11/06","05:06:04","AMMA06",82792.000,"cc",28309.434,6.00,2830.944,1,6,0.100,42021.000,0.200,31017.000,0.300,8408.000,0.500,981.000,1.000,365.000,5.000,0
"07/11/06","05:06:10","AMMA06",82882.000,"cc",28336.328,6.00,2833.633,1,6,0.100,42467.000,0.200,30838.000,0.300,8094.000,0.500,1095.000,1.000,388.000,5.000,0
"07/11/06","05:06:16","AMMA06",82871.000,"cc",28365.193,6.00,2836.520,1,6,0.100,42461.000,0.200,30578.000,0.300,8368.000,0.500,1071.000,1.000,393.000,5.000,0
"07/11/06","05:06:22","AMMA06",85225.000,"cc",28290.990,6.00,2829.099,1,6,0.100,43013.000,0.200,31262.000,0.300,8782.000,0.500,1426.000,1.000,742.000,5.000,0
"07/11/06","05:06:28","AMMA06",84191.000,"cc",28285.879,6.00,2828.588,1,6,0.100,42948.000,0.200,30846.000,0.300,8553.000,0.500,1292.000,1.000,552.000,5.000,0
"07/11/06","05:06:34","AMMA06",83018.000,"cc",28291.938,6.00,2829.194,1,6,0.100,42385.000,0.200,30795.000,0.300,8381.000,0.500,1036.000,1.000,421.000,5.000,0
"07/11/06","05:06:40","AMMA06",83182.000,"cc",28301.395,6.00,2830.140,1,6,0.100,42733.000,0.200,30788.000,0.300,8194.000,0.500,1074.000,1.000,393.000,5.000,0
"07/11/06","05:06:46","AMMA06",82628.000,"cc",28321.256,6.00,2832.126,1,6,0.100,42541.000,0.200,30827.000,0.300,8051.000,0.500,906.000,1.000,302.000,5.000,1.000
"07/11/06","05:06:52","AMMA06",82892.000,"cc",28361.215,6.00,2836.122,1,6,0.100,42283.000,0.200,30862.000,0.300,8271.000,0.500,1078.000,1.000,398.000,5.000,0
"07/11/06","05:06:58","AMMA06",83179.000,"cc",28315.740,6.00,2831.574,1,6,0.100,42333.000,0.200,30703.000,0.300,8421.000,0.500,1183.000,1.000,539.000,5.000,0
"07/11/06","05:07:04","AMMA06",83802.000,"cc",28367.377,6.00,2836.738,1,6,0.100,42606.000,0.200,30950.000,0.300,8374.000,0.500,1311.000,1.000,561.000,5.000,0
"07/11/06","05:07:10","AMMA06",83326.000,"cc",28309.557,6.00,2830.956,1,6,0.100,42618.000,0.200,30750.000,0.300,8291.000,0.500,1183.000,1.000,483.000,5.000,1.000
"07/11/06","05:07:16","AMMA06",84527.000,"cc",28323.324,6.00,2832.333,1,6,0.100,43359.000,0.200,30847.000,0.300,8530.000,0.500,1235.000,1.000,556.000,5.000,0
"07/11/06","05:07:22","AMMA06",82520.000,"cc",28308.080,6.00,2830.808,1,6,0.100,42432.000,0.200,30711.000,0.300,7991.000,0.500,998.000,1.000,388.000,5.000,0
"07/11/06","05:07:28","AMMA06",82829.000,"cc",28283.621,6.00,2828.362,1,6,0.100,42549.000,0.200,30844.000,0.300,8051.000,0.500,1029.000,1.000,356.000,5.000,0
"07/11/06","05:07:34","AMMA06",81729.000,"cc",28300.723,6.00,2830.073,1,6,0.100,42095.000,0.200,30517.000,0.300,7907.000,0.500,921.000,1.000,289.000,5.000,0
"07/11/06","05:07:40","AMMA06",82462.000,"cc",28361.217,6.00,2836.122,1,6,0.100,42613.000,0.200,30641.000,0.300,8031.000,0.500,872.000,1.000,305.000,5.000,0
"07/11/06","05:07:46","AMMA06",82536.000,"cc",28310.674,6.00,2831.068,1,6,0.100,42514.000,0.200,30669.000,0.300,8190.000,0.500,884.000,1.000,279.000,5.000,0
"07/11/06","05:07:52","AMMA06",82309.000,"cc",28327.994,6.00,2832.800,1,6,0.100,42157.000,0.200,30939.000,0.300,8051.000,0.500,889.000,1.000,273.000,5.000,0
"07/11/06","05:07:58","AMMA06",83028.000,"cc",28339.893,6.00,2833.990,1,6,0.100,42606.000,0.200,30904.000,0.300,8223.000,0.500,975.000,1.000,320.000,5.000,0
"07/11/06","05:08:04","AMMA06",83737.000,"cc",28296.074,6.00,2829.608,1,6,0.100,42605.000,0.200,31304.000,0.300,8389.000,0.500,1046.000,1.000,393.000,5.000,0
"07/11/06","05:08:10","AMMA06",83863.000,"cc",28313.086,6.00,2831.309,1,6,0.100,42781.000,0.200,31093.000,0.300,8522.000,0.500,1066.000,1.000,401.000,5.000,0
"07/11/06","05:08:16","AMMA06",83383.000,"cc",28278.397,6.00,2827.840,1,6,0.100,42459.000,0.200,31419.000,0.300,8257.000,0.500,979.000,1.000,269.000,5.000,0
"07/11/06","05:08:22","AMMA06",82945.000,"cc",28311.670,6.00,2831.167,1,6,0.100,42078.000,0.200,31219.000,0.300,8303.000,0.500,984.000,1.000,361.000,5.000,0
"07/11/06","05:08:28","AMMA06",83286.000,"cc",28294.297,6.00,2829.430,1,6,0.100,42338.000,0.200,31393.000,0.300,8365.000,0.500,930.000,1.000,260.000,5.000,0
"07/11/06","05:08:34","AMMA06",83378.000,"cc",28296.162,6.00,2829.617,1,6,0.100,42256.000,0.200,31543.000,0.300,8336.000,0.500,971.000,1.000,271.000,5.000,1.000
"07/11/06","05:08:40","AMMA06",83810.000,"cc",28400.641,6.00,2840.064,1,6,0.100,42420.000,0.200,31424.000,0.300,8518.000,0.500,1090.000,1.000,358.000,5.000,0
"07/11/06","05:08:46","AMMA06",83406.000,"cc",28311.297,6.00,2831.130,1,6,0.100,42053.000,0.200,31290.000,0.300,8611.000,0.500,1054.000,1.000,398.000,5.000,0
"07/11/06","05:08:52","AMMA06",84060.000,"cc",28323.924,6.00,2832.393,1,6,0.100,42295.000,0.200,31420.000,0.300,8655.000,0.500,1206.000,1.000,483.000,5.000,1.000
"07/11/06","05:08:58","AMMA06",83543.000,"cc",28287.012,6.00,2828.701,1,6,0.100,41899.000,0.200,31573.000,0.300,8644.000,0.500,1094.000,1.000,333.000,5.000,0
"07/11/06","05:09:04","AMMA06",83809.000,"cc",28343.783,6.00,2834.378,1,6,0.100,42355.000,0.200,31327.000,0.300,8672.000,0.500,1085.000,1.000,370.000,5.000,0
"07/11/06","05:09:10","AMMA06",82986.000,"cc",28306.422,6.00,2830.642,1,6,0.100,41566.000,0.200,31266.000,0.300,8808.000,0.500,997.000,1.000,349.000,5.000,0
"07/11/06","05:09:16","AMMA06",83213.000,"cc",28337.553,6.00,2833.755,1,6,0.100,42164.000,0.200,31314.000,0.300,8456.000,0.500,983.000,1.000,296.000,5.000,0
"07/11/06","05:09:22","AMMA06",83081.000,"cc",28305.479,6.00,2830.548,1,6,0.100,42040.000,0.200,31164.000,0.300,8555.000,0.500,1027.000,1.000,295.000,5.000,0
"07/11/06","05:09:28","AMMA06",83979.000,"cc",28269.447,6.00,2826.945,1,6,0.100,42137.000,0.200,31513.000,0.300,8741.000,0.500,1187.000,1.000,401.000,5.000,0
"07/11/06","05:09:34","AMMA06",83657.000,"cc",28373.543,6.00,2837.355,1,6,0.100,41743.000,0.200,31579.000,0.300,8816.000,0.500,1123.000,1.000,396.000,5.000,0
"07/11/06","05:09:40","AMMA06",83882.000,"cc",28285.893,6.00,2828.589,1,6,0.100,42555.000,0.200,31422.000,0.300,8559.000,0.500,1040.000,1.000,306.000,5.000,0
"07/11/06","05:09:46","AMMA06",84034.000,"cc",28330.590,6.00,2833.059,1,6,0.100,42095.000,0.200,31551.000,0.300,8772.000,0.500,1176.000,1.000,440.000,5.000,0
"07/11/06","05:09:52","AMMA06",83585.000,"cc",28348.746,6.00,2834.875,1,6,0.100,41848.000,0.200,31495.000,0.300,8629.000,0.500,1191.000,1.000,422.000,5.000,0
"07/11/06","05:09:58","AMMA06",85289.000,"cc",28336.910,6.00,2833.691,1,6,0.100,42827.000,0.200,31626.000,0.300,8952.000,0.500,1320.000,1.000,563.000,5.000,1.000
"07/11/06","05:10:04","AMMA06",83940.000,"cc",28226.850,6.00,2822.685,1,6,0.100,42126.000,0.200,31473.000,0.300,8852.000,0.500,1151.000,1.000,338.000,5.000,0
"07/11/06","05:10:10","AMMA06",83507.000,"cc",28336.522,6.00,2833.652,1,6,0.100,41939.000,0.200,31418.000,0.300,8625.000,0.500,1142.000,1.000,383.000,5.000,0
"07/11/06","05:10:16","AMMA06",83744.000,"cc",28318.627,6.00,2831.863,1,6,0.100,41659.000,0.200,31778.000,0.300,8856.000,0.500,1096.000,1.000,355.000,5.000,0
"07/11/06","05:10:22","AMMA06",83967.000,"cc",28268.789,6.00,2826.879,1,6,0.100,41976.000,0.200,31587.000,0.300,8862.000,0.500,1136.000,1.000,406.000,5.000,0
"07/11/06","05:10:28","AMMA06",83202.000,"cc",28343.992,6.00,2834.399,1,6,0.100,41651.000,0.200,31483.000,0.300,8696.000,0.500,1070.000,1.000,302.000,5.000,0
"07/11/06","05:10:34","AMMA06",83888.000,"cc",28314.438,6.00,2831.444,1,6,0.100,41751.000,0.200,31764.000,0.300,8920.000,0.500,1097.000,1.000,356.000,5.000,0
"07/11/06","05:10:40","AMMA06",84224.000,"cc",28327.348,6.00,2832.735,1,6,0.100,41779.000,0.200,31697.000,0.300,9115.000,0.500,1241.000,1.000,392.000,5.000,0
"07/11/06","05:10:46","AMMA06",82986.000,"cc",28346.147,6.00,2834.615,1,6,0.100,40975.000,0.200,31883.000,0.300,8765.000,0.500,1065.000,1.000,298.000,5.000,0
"07/11/06","05:10:52","AMMA06",82615.000,"cc",28305.688,6.00,2830.569,1,6,0.100,41034.000,0.200,31480.000,0.300,8725.000,0.500,1054.000,1.000,322.000,5.000,0
"07/11/06","05:10:58","AMMA06",82687.000,"cc",28274.701,6.00,2827.470,1,6,0.100,41431.000,0.200,31357.000,0.300,8540.000,0.500,1049.000,1.000,309.000,5.000,1.000
"07/11/06","05:11:04","AMMA06",82920.000,"cc",28289.471,6.00,2828.947,1,6,0.100,41881.000,0.200,31144.000,0.300,8506.000,0.500,1070.000,1.000,319.000,5.000,0
"07/11/06","05:11:10","AMMA06",83626.000,"cc",28370.574,6.00,2837.058,1,6,0.100,41792.000,0.200,31357.000,0.300,8809.000,0.500,1205.000,1.000,462.000,5.000,1.000
"07/11/06","05:11:16","AMMA06",84165.000,"cc",28328.941,6.00,2832.894,1,6,0.100,42028.000,0.200,31442.000,0.300,8979.000,0.500,1208.000,1.000,508.000,5.000,0
"07/11/06","05:11:22","AMMA06",88088.000,"cc",28332.529,6.00,2833.253,1,6,0.100,43396.000,0.200,31856.000,0.300,9686.000,0.500,2007.000,1.000,1143.000,5.000,0
"07/11/06","05:11:28","AMMA06",84862.000,"cc",28328.164,6.00,2832.817,1,6,0.100,42309.000,0.200,31672.000,0.300,8837.000,0.500,1376.000,1.000,668.000,5.000,0
"07/11/06","05:11:34","AMMA06",84256.000,"cc",28256.699,6.00,2825.670,1,6,0.100,42472.000,0.200,31294.000,0.300,8727.000,0.500,1216.000,1.000,547.000,5.000,0
"07/11/06","05:11:40","AMMA06",83953.000,"cc",28322.936,6.00,2832.294,1,6,0.100,42590.000,0.200,31171.000,0.300,8575.000,0.500,1138.000,1.000,479.000,5.000,0
"07/11/06","05:11:46","AMMA06",83514.000,"cc",28340.830,6.00,2834.083,1,6,0.100,42510.000,0.200,31003.000,0.300,8457.000,0.500,1104.000,1.000,440.000,5.000,0
"07/11/06","05:11:52","AMMA06",83971.000,"cc",28313.975,6.00,2831.398,1,6,0.100,42597.000,0.200,31340.000,0.300,8460.000,0.500,1141.000,1.000,433.000,5.000,0
"07/11/06","05:11:58","AMMA06",82894.000,"cc",28323.242,6.00,2832.325,1,6,0.100,42403.000,0.200,30686.000,0.300,8394.000,0.500,1033.000,1.000,378.000,5.000,0
"07/11/06","05:12:04","AMMA06",86130.000,"cc",28301.627,6.00,2830.163,1,6,0.100,44565.000,0.200,31727.000,0.300,8317.000,0.500,1104.000,1.000,417.000,5.000,0
"07/11/06","05:12:10","AMMA06",87855.000,"cc",28339.522,6.00,2833.952,1,6,0.100,44973.000,0.200,31846.000,0.300,8830.000,0.500,1430.000,1.000,776.000,5.000,0
"07/11/06","05:12:16","AMMA06",85131.000,"cc",28326.766,6.00,2832.677,1,6,0.100,43685.000,0.200,31360.000,0.300,8380.000,0.500,1203.000,1.000,503.000,5.000,0
"07/11/06","05:12:22","AMMA06",84853.000,"cc",28299.822,6.00,2829.982,1,6,0.100,43429.000,0.200,31167.000,0.300,8480.000,0.500,1251.000,1.000,526.000,5.000,0
"07/11/06","05:12:28","AMMA06",85289.000,"cc",28363.475,6.00,2836.348,1,6,0.100,43494.000,0.200,31288.000,0.300,8678.000,0.500,1268.000,1.000,561.000,5.000,0
"07/11/06","05:12:34","AMMA06",83910.000,"cc",28290.756,6.00,2829.076,1,6,0.100,43193.000,0.200,30803.000,0.300,8381.000,0.500,1115.000,1.000,418.000,5.000,0
"07/11/06","05:12:40","AMMA06",83054.000,"cc",28348.320,6.00,2834.832,1,6,0.100,42443.000,0.200,30930.000,0.300,8418.000,0.500,944.000,1.000,319.000,5.000,0
"07/11/06","05:12:46","AMMA06",82612.000,"cc",28376.559,6.00,2837.656,1,6,0.100,41920.000,0.200,31116.000,0.300,8317.000,0.500,948.000,1.000,311.000,5.000,0
"07/11/06","05:12:52","AMMA06",83742.000,"cc",28288.074,6.00,2828.808,1,6,0.100,42625.000,0.200,31075.000,0.300,8475.000,0.500,1125.000,1.000,442.000,5.000,0
"07/11/06","05:12:58","AMMA06",83559.000,"cc",28264.057,6.00,2826.406,1,6,0.100,42423.000,0.200,31194.000,0.300,8435.000,0.500,1097.000,1.000,409.000,5.000,1.000
"07/11/06","05:13:04","AMMA06",84233.000,"cc",28291.088,6.00,2829.109,1,6,0.100,42895.000,0.200,31340.000,0.300,8431.000,0.500,1108.000,1.000,459.000,5.000,0
"07/11/06","05:13:10","AMMA06",85411.000,"cc",28309.824,6.00,2830.983,1,6,0.100,43244.000,0.200,31346.000,0.300,8846.000,0.500,1378.000,1.000,597.000,5.000,0
"07/11/06","05:13:16","AMMA06",85084.000,"cc",28303.197,6.00,2830.320,1,6,0.100,42640.000,0.200,31514.000,0.300,8832.000,0.500,1385.000,1.000,713.000,5.000,0
"07/11/06","05:13:22","AMMA06",84488.000,"cc",28273.061,6.00,2827.306,1,6,0.100,42497.000,0.200,31185.000,0.300,8824.000,0.500,1367.000,1.000,615.000,5.000,0
"07/11/06","05:13:28","AMMA06",83552.000,"cc",28303.197,6.00,2830.320,1,6,0.100,42474.000,0.200,31206.000,0.300,8339.000,0.500,1118.000,1.000,414.000,5.000,1.000
"07/11/06","05:13:34","AMMA06",87111.000,"cc",28428.055,6.00,2842.806,1,6,0.100,43464.000,0.200,32025.000,0.300,9108.000,0.500,1657.000,1.000,856.000,5.000,1.000
"07/11/06","05:13:40","AMMA06",87301.000,"cc",28334.449,6.00,2833.445,1,6,0.100,43895.000,0.200,31861.000,0.300,9107.000,0.500,1594.000,1.000,842.000,5.000,2.000
"07/11/06","05:13:46","AMMA06",85650.000,"cc",28314.488,6.00,2831.449,1,6,0.100,43526.000,0.200,31571.000,0.300,8773.000,0.500,1275.000,1.000,505.000,5.000,0
"07/11/06","05:13:52","AMMA06",84742.000,"cc",28310.600,6.00,2831.060,1,6,0.100,43081.000,0.200,31483.000,0.300,8526.000,0.500,1188.000,1.000,464.000,5.000,0
"07/11/06","05:13:58","AMMA06",83840.000,"cc",28301.309,6.00,2830.131,1,6,0.100,42492.000,0.200,31528.000,0.300,8381.000,0.500,1052.000,1.000,387.000,5.000,0
"07/11/06","05:14:04","AMMA06",83177.000,"cc",28262.945,6.00,2826.295,1,6,0.100,42314.000,0.200,31200.000,0.300,8320.000,0.500,1062.000,1.000,281.000,5.000,0
"07/11/06","05:14:10","AMMA06",83564.000,"cc",28325.787,6.00,2832.579,1,6,0.100,42813.000,0.200,31187.000,0.300,8282.000,0.500,973.000,1.000,308.000,5.000,1.000